Time,TemperatureF,DewpointF,PressureIn,WindDirection,WindDirectionDegrees,WindSpeedMPH,WindSpeedGustMPH,Humidity,HourlyPrecipIn,Conditions,Clouds,dailyrainin,SoftwareType,DateUTC
2013-04-22 00:11:00,50.9,39.0,30.35,ESE,108,0.0,1.0,64,0.00,,,0.00,weatherlink.com 1.10,2013-04-22 04:11:00,
2013-04-22 00:26:00,50.1,39.0,30.35,ESE,115,1.0,1.0,67,0.00,,,0.00,weatherlink.com 1.10,2013-04-22 04:26:00,
2013-04-22 00:41:00,49.9,39.0,30.34,ESE,115,0.0,1.0,67,0.00,,,0.00,weatherlink.com 1.10,2013-04-22 04:41:00,
2013-04-22 00:56:00,49.7,39.0,30.34,ESE,113,0.0,1.0,68,0.00,,,0.00,weatherlink.com 1.10,2013-04-22 04:56:00,
2013-04-22 01:11:00,48.8,40.0,30.34,ESE,112,0.0,1.0,71,0.00,,,0.00,weatherlink.com 1.10,2013-04-22 05:11:00,
2013-04-22 01:26:00,48.1,39.0,30.34,ESE,112,0.0,0.0,72,0.00,,,0.00,weatherlink.com 1.10,2013-04-22 05:26:00,
2013-04-22 01:41:00,47.6,40.0,30.34,ESE,112,0.0,1.0,74,0.00,,,0.00,weatherlink.com 1.10,2013-04-22 05:41:00,
2013-04-22 01:56:00,46.8,39.0,30.33,ESE,112,0.0,1.0,75,0.00,,,0.00,weatherlink.com 1.10,2013-04-22 05:56:00,
2013-04-22 02:11:00,46.3,39.0,30.33,ENE,64,1.0,1.0,76,0.00,,,0.00,weatherlink.com 1.10,2013-04-22 06:11:00,
2013-04-22 02:27:00,45.9,39.0,30.33,ENE,64,1.0,1.0,78,0.00,,,0.00,weatherlink.com 1.10,2013-04-22 06:27:00,
2013-04-22 02:42:00,45.9,40.0,30.32,ENE,64,1.0,1.0,79,0.00,,,0.00,weatherlink.com 1.10,2013-04-22 06:42:00,
2013-04-22 02:57:00,45.5,39.0,30.32,NNE,32,1.0,1.0,79,0.00,,,0.00,weatherlink.com 1.10,2013-04-22 06:57:00,
2013-04-22 03:12:00,45.1,40.0,30.32,NNE,33,1.0,1.0,81,0.00,,,0.00,weatherlink.com 1.10,2013-04-22 07:12:00,
2013-04-22 03:27:00,44.7,40.0,30.32,NNE,30,1.0,1.0,82,0.00,,,0.00,weatherlink.com 1.10,2013-04-22 07:27:00,
2013-04-22 03:42:00,44.4,39.0,30.32,NNE,30,0.0,1.0,82,0.00,,,0.00,weatherlink.com 1.10,2013-04-22 07:42:00,
2013-04-22 03:57:00,43.9,39.0,30.32,NNE,30,0.0,1.0,83,0.00,,,0.00,weatherlink.com 1.10,2013-04-22 07:57:00,
2013-04-22 04:12:00,43.5,39.0,30.32,NNE,30,0.0,1.0,85,0.00,,,0.00,weatherlink.com 1.10,2013-04-22 08:12:00,
2013-04-22 04:27:00,43.1,39.0,30.32,NNE,30,1.0,1.0,86,0.00,,,0.00,weatherlink.com 1.10,2013-04-22 08:27:00,
2013-04-22 04:42:00,43.1,39.0,30.32,NNE,20,1.0,1.0,86,0.00,,,0.00,weatherlink.com 1.10,2013-04-22 08:42:00,
2013-04-22 04:57:00,43.0,39.0,30.33,NNE,20,1.0,1.0,86,0.00,,,0.00,weatherlink.com 1.10,2013-04-22 08:57:00,
2013-04-22 05:12:00,42.6,39.0,30.32,NNE,20,1.0,1.0,87,0.00,,,0.00,weatherlink.com 1.10,2013-04-22 09:12:00,
2013-04-22 05:27:00,42.3,39.0,30.33,NNE,20,0.0,0.0,87,0.00,,,0.00,weatherlink.com 1.10,2013-04-22 09:27:00,
2013-04-22 05:42:00,41.9,39.0,30.33,NNE,20,0.0,1.0,88,0.00,,,0.00,weatherlink.com 1.10,2013-04-22 09:42:00,
2013-04-22 05:57:00,41.4,38.0,30.34,NNE,20,0.0,1.0,89,0.00,,,0.00,weatherlink.com 1.10,2013-04-22 09:57:00,
2013-04-22 06:12:00,41.1,38.0,30.34,NNE,20,0.0,1.0,90,0.00,,,0.00,weatherlink.com 1.10,2013-04-22 10:12:00,
2013-04-22 06:27:00,40.8,38.0,30.34,NNE,20,0.0,1.0,90,0.00,,,0.00,weatherlink.com 1.10,2013-04-22 10:27:00,
2013-04-22 06:42:00,40.6,38.0,30.34,NNE,20,1.0,1.0,91,0.00,,,0.00,weatherlink.com 1.10,2013-04-22 10:42:00,
2013-04-22 06:57:00,40.6,38.0,30.35,NNE,20,1.0,1.0,91,0.00,,,0.00,weatherlink.com 1.10,2013-04-22 10:57:00,
2013-04-22 07:12:00,40.6,38.0,30.36,NNE,19,1.0,1.0,91,0.00,,,0.00,weatherlink.com 1.10,2013-04-22 11:12:00,
2013-04-22 07:27:00,41.0,39.0,30.36,NNE,20,1.0,1.0,91,0.00,,,0.00,weatherlink.com 1.10,2013-04-22 11:27:00,
2013-04-22 07:42:00,41.5,39.0,30.36,NNE,20,0.0,1.0,91,0.00,,,0.00,weatherlink.com 1.10,2013-04-22 11:42:00,
2013-04-22 07:57:00,42.6,40.0,30.36,NNE,20,1.0,1.0,90,0.00,,,0.00,weatherlink.com 1.10,2013-04-22 11:57:00,
2013-04-22 08:12:00,43.6,41.0,30.37,NNE,20,0.0,1.0,89,0.00,,,0.00,weatherlink.com 1.10,2013-04-22 12:12:00,
2013-04-22 08:27:00,45.0,41.0,30.37,NNE,20,0.0,0.0,87,0.00,,,0.00,weatherlink.com 1.10,2013-04-22 12:27:00,
2013-04-22 08:42:00,46.3,41.0,30.37,NNE,20,0.0,1.0,81,0.00,,,0.00,weatherlink.com 1.10,2013-04-22 12:42:00,
2013-04-22 08:57:00,47.7,40.0,30.37,SSE,160,1.0,1.0,75,0.00,,,0.00,weatherlink.com 1.10,2013-04-22 12:57:00,
2013-04-22 09:12:00,48.9,40.0,30.36,ENE,74,0.0,1.0,72,0.00,,,0.00,weatherlink.com 1.10,2013-04-22 13:12:00,
2013-04-22 09:27:00,49.9,40.0,30.36,SW,226,1.0,2.0,69,0.00,,,0.00,weatherlink.com 1.10,2013-04-22 13:27:00,
2013-04-22 09:42:00,50.8,40.0,30.35,South,177,2.0,2.0,67,0.00,,,0.00,weatherlink.com 1.10,2013-04-22 13:42:00,
2013-04-22 09:57:00,51.7,40.0,30.35,South,172,1.0,3.0,65,0.00,,,0.00,weatherlink.com 1.10,2013-04-22 13:57:00,
2013-04-22 10:12:00,52.7,40.0,30.34,South,174,1.0,2.0,62,0.00,,,0.00,weatherlink.com 1.10,2013-04-22 14:12:00,
2013-04-22 10:27:00,54.2,40.0,30.34,ENE,75,2.0,2.0,60,0.00,,,0.00,weatherlink.com 1.10,2013-04-22 14:27:00,
2013-04-22 10:42:00,54.8,40.0,30.34,NW,317,2.0,3.0,58,0.00,,,0.00,weatherlink.com 1.10,2013-04-22 14:42:00,
2013-04-22 10:58:00,56.2,40.0,30.34,West,278,1.0,4.0,56,0.00,,,0.00,weatherlink.com 1.10,2013-04-22 14:58:00,
2013-04-22 11:13:00,58.1,41.0,30.33,ENE,61,1.0,2.0,54,0.00,,,0.00,weatherlink.com 1.10,2013-04-22 15:13:00,
2013-04-22 11:28:00,59.0,41.0,30.33,SE,146,0.0,4.0,51,0.00,,,0.00,weatherlink.com 1.10,2013-04-22 15:28:00,
2013-04-22 11:43:00,59.9,40.0,30.32,West,259,2.0,6.0,49,0.00,,,0.00,weatherlink.com 1.10,2013-04-22 15:43:00,
2013-04-22 11:58:00,61.3,40.0,30.31,West,259,2.0,5.0,45,0.00,,,0.00,weatherlink.com 1.10,2013-04-22 15:58:00,
2013-04-22 12:13:00,63.1,39.0,30.31,SE,127,1.0,3.0,41,0.00,,,0.00,weatherlink.com 1.10,2013-04-22 16:13:00,
2013-04-22 12:28:00,64.1,39.0,30.30,North,6,2.0,4.0,40,0.00,,,0.00,weatherlink.com 1.10,2013-04-22 16:28:00,
2013-04-22 12:43:00,64.3,41.0,30.29,East,88,1.0,4.0,43,0.00,,,0.00,weatherlink.com 1.10,2013-04-22 16:43:00,
2013-04-22 12:58:00,65.3,40.0,30.28,South,187,1.0,3.0,39,0.00,,,0.00,weatherlink.com 1.10,2013-04-22 16:58:00,
2013-04-22 13:13:00,65.9,39.0,30.27,ENE,66,2.0,3.0,38,0.00,,,0.00,weatherlink.com 1.10,2013-04-22 17:13:00,
2013-04-22 13:28:00,66.3,40.0,30.27,ENE,72,1.0,1.0,38,0.00,,,0.00,weatherlink.com 1.10,2013-04-22 17:28:00,
2013-04-22 13:43:00,66.3,36.0,30.26,North,1,1.0,6.0,33,0.00,,,0.00,weatherlink.com 1.10,2013-04-22 17:43:00,
2013-04-22 13:58:00,69.1,36.0,30.25,East,96,1.0,2.0,30,0.00,,,0.00,weatherlink.com 1.10,2013-04-22 17:58:00,
2013-04-22 14:13:00,68.3,36.0,30.24,East,100,2.0,4.0,30,0.00,,,0.00,weatherlink.com 1.10,2013-04-22 18:13:00,
2013-04-22 14:28:00,70.1,39.0,30.23,ENE,76,1.0,2.0,32,0.00,,,0.00,weatherlink.com 1.10,2013-04-22 18:28:00,
2013-04-22 14:43:00,72.3,37.0,30.23,SW,226,3.0,4.0,28,0.00,,,0.00,weatherlink.com 1.10,2013-04-22 18:43:00,
2013-04-22 14:58:00,71.7,38.0,30.22,SE,142,1.0,3.0,29,0.00,,,0.00,weatherlink.com 1.10,2013-04-22 18:58:00,
2013-04-22 15:13:00,72.5,39.0,30.21,SW,225,2.0,3.0,30,0.00,,,0.00,weatherlink.com 1.10,2013-04-22 19:13:00,
2013-04-22 15:28:00,72.1,38.0,30.20,WSW,250,2.0,6.0,29,0.00,,,0.00,weatherlink.com 1.10,2013-04-22 19:28:00,
2013-04-22 15:44:00,72.0,40.0,30.20,WSW,246,1.0,4.0,32,0.00,,,0.00,weatherlink.com 1.10,2013-04-22 19:44:00,
2013-04-22 15:59:00,71.8,39.0,30.18,East,94,2.0,4.0,31,0.00,,,0.00,weatherlink.com 1.10,2013-04-22 19:59:00,
2013-04-22 16:14:00,72.9,40.0,30.17,NNE,13,1.0,4.0,31,0.00,,,0.00,weatherlink.com 1.10,2013-04-22 20:14:00,
2013-04-22 16:29:00,73.2,42.0,30.17,NNW,329,2.0,3.0,33,0.00,,,0.00,weatherlink.com 1.10,2013-04-22 20:29:00,
2013-04-22 16:44:00,72.8,43.0,30.16,East,98,1.0,3.0,34,0.00,,,0.00,weatherlink.com 1.10,2013-04-22 20:44:00,
2013-04-22 16:59:00,72.7,43.0,30.16,SE,146,0.0,3.0,34,0.00,,,0.00,weatherlink.com 1.10,2013-04-22 20:59:00,
2013-04-22 17:14:00,72.7,42.0,30.16,ESE,118,0.0,3.0,33,0.00,,,0.00,weatherlink.com 1.10,2013-04-22 21:14:00,
2013-04-22 17:29:00,72.2,41.0,30.15,SSE,152,1.0,4.0,33,0.00,,,0.00,weatherlink.com 1.10,2013-04-22 21:29:00,
2013-04-22 17:44:00,71.5,43.0,30.15,SSE,148,0.0,2.0,36,0.00,,,0.00,weatherlink.com 1.10,2013-04-22 21:44:00,
2013-04-22 17:59:00,70.8,42.0,30.15,SE,134,0.0,4.0,36,0.00,,,0.00,weatherlink.com 1.10,2013-04-22 21:59:00,
2013-04-22 18:14:00,69.2,43.0,30.16,SSE,152,1.0,4.0,39,0.00,,,0.00,weatherlink.com 1.10,2013-04-22 22:14:00,
2013-04-22 18:29:00,68.7,43.0,30.16,SW,226,1.0,3.0,39,0.00,,,0.00,weatherlink.com 1.10,2013-04-22 22:29:00,
2013-04-22 18:44:00,68.1,42.0,30.16,SSE,161,2.0,3.0,39,0.00,,,0.00,weatherlink.com 1.10,2013-04-22 22:44:00,
2013-04-22 18:59:00,67.4,41.0,30.16,SSE,160,1.0,3.0,38,0.00,,,0.00,weatherlink.com 1.10,2013-04-22 22:59:00,
2013-04-22 19:14:00,66.4,40.0,30.17,SSE,148,1.0,3.0,38,0.00,,,0.00,weatherlink.com 1.10,2013-04-22 23:14:00,
2013-04-22 19:29:00,65.3,39.0,30.17,SSE,163,1.0,2.0,38,0.00,,,0.00,weatherlink.com 1.10,2013-04-22 23:29:00,
2013-04-22 19:44:00,64.5,40.0,30.18,SSW,200,3.0,4.0,40,0.00,,,0.00,weatherlink.com 1.10,2013-04-22 23:44:00,
2013-04-22 19:59:00,63.8,41.0,30.18,SSE,165,2.0,5.0,43,0.00,,,0.00,weatherlink.com 1.10,2013-04-22 23:59:00,
2013-04-22 20:14:00,62.8,42.0,30.18,SW,214,5.0,5.0,47,0.00,,,0.00,weatherlink.com 1.10,2013-04-23 00:14:00,
2013-04-22 20:29:00,61.9,42.0,30.18,SSE,148,1.0,7.0,49,0.00,,,0.00,weatherlink.com 1.10,2013-04-23 00:29:00,
2013-04-22 20:44:00,60.8,42.0,30.19,SSE,147,1.0,2.0,50,0.00,,,0.00,weatherlink.com 1.10,2013-04-23 00:44:00,
2013-04-22 20:59:00,60.0,42.0,30.19,ESE,116,0.0,4.0,51,0.00,,,0.00,weatherlink.com 1.10,2013-04-23 00:59:00,
2013-04-22 21:14:00,59.4,42.0,30.20,SSW,212,1.0,3.0,52,0.00,,,0.00,weatherlink.com 1.10,2013-04-23 01:14:00,
2013-04-22 21:29:00,58.8,41.0,30.20,SSE,153,0.0,4.0,52,0.00,,,0.00,weatherlink.com 1.10,2013-04-23 01:29:00,
2013-04-22 21:44:00,58.0,41.0,30.21,West,270,0.0,2.0,54,0.00,,,0.00,weatherlink.com 1.10,2013-04-23 01:44:00,
2013-04-22 21:59:00,56.8,41.0,30.21,East,92,0.0,0.0,55,0.00,,,0.00,weatherlink.com 1.10,2013-04-23 01:59:00,
2013-04-22 22:14:00,55.7,41.0,30.22,SW,226,0.0,0.0,58,0.00,,,0.00,weatherlink.com 1.10,2013-04-23 02:14:00,
2013-04-22 22:29:00,54.9,41.0,30.22,North,5,0.0,0.0,59,0.00,,,0.00,weatherlink.com 1.10,2013-04-23 02:29:00,
2013-04-22 22:44:00,54.7,40.0,30.23,NNW,342,0.0,0.0,59,0.00,,,0.00,weatherlink.com 1.10,2013-04-23 02:44:00,
2013-04-22 22:59:00,54.1,41.0,30.23,WSW,250,0.0,2.0,61,0.00,,,0.00,weatherlink.com 1.10,2013-04-23 02:59:00,
2013-04-22 23:14:00,53.9,41.0,30.23,NNW,342,0.0,2.0,61,0.00,,,0.00,weatherlink.com 1.10,2013-04-23 03:14:00,
2013-04-22 23:29:00,53.6,41.0,30.23,NE,42,1.0,2.0,62,0.00,,,0.00,weatherlink.com 1.10,2013-04-23 03:29:00,
2013-04-22 23:44:00,53.7,39.0,30.23,SE,145,1.0,3.0,59,0.00,,,0.00,weatherlink.com 1.10,2013-04-23 03:44:00,
2013-04-22 23:59:00,53.9,40.0,30.23,SE,137,0.0,2.0,59,0.00,,,0.00,weatherlink.com 1.10,2013-04-23 03:59:00,